This demonstration page uses our WeatherBlox Daily Observations layout. Learn more.

Left ArrowRight Arrow

Hourly Observations for March 13, 2020

Temp ( °F °C ) Dew Point ( °F °C ) Humidity (%) Winds ( mph kmh ) Pressure ( in mb ) Visibility ( mi km ) Precip ( " mm )
12:53 am 00:53 Clear 66 18.9 21 -6.1 18 18 N 16 26 29.72 1007 10 16 0.00 0.00
1:53 am 01:53 Clear 64 17.8 22 -5.6 20 20 N 12 19 29.71 1006 10 16 0.00 0.00
2:53 am 02:53 Clear 63 17.2 22 -5.6 21 21 NNW 13 20 29.69 1006 10 16 0.00 0.00
3:53 am 03:53 Clear 62 16.7 20 -6.7 20 20 NNW 9 15 29.67 1005 10 16 0.00 0.00
4:53 am 04:53 Clear 59 15 21 -6.1 23 23 NNW 8 13 29.65 1004 10 16 0.00 0.00
5:53 am 05:53 Clear 60 15.6 22 -5.6 23 23 NNW 7 11 29.64 1004 10 16 0.00 0.00
6:53 am 06:53 Clear 59 15 22 -5.6 24 24 N 9 15 29.64 1004 10 16 0.00 0.00
7:53 am 07:53 Sunny 58 14.4 21 -6.1 24 24 N 8 13 29.63 1004 10 16 0.00 0.00
8:53 am 08:53 Sunny 61 16.1 21 -6.1 21 21 N 7 11 29.63 1003 10 16 0.00 0.00
9:53 am 09:53 Sunny 65 18.3 20 -6.7 18 18 N 12 19 29.63 1003 10 16 0.00 0.00
10:53 am 10:53 Sunny 67 19.4 21 -6.1 17 17 Calm 29.63 1003 10 16 0.00 0.00
11:53 am 11:53 Sunny 67 19.4 38 3.3 35 35 SSE 18 30 29.63 1003 10 16 0.00 0.00
12:53 pm 12:53 Sunny 67 19.4 35 1.7 31 31 S 17 28 29.62 1003 10 16 0.00 0.00
1:53 pm 13:53 Sunny 69 20.6 39 3.9 33 33 S 18 30 29.58 1002 10 16 0.00 0.00
2:53 pm 14:53 Sunny 70 21.1 41 5 35 35 S 20 31 29.56 1001 10 16 0.00 0.00
3:53 pm 15:53 Sunny 71 21.7 43 6.1 36 36 S 23 37 29.54 1000 10 16 0.00 0.00
4:53 pm 16:53 Sunny 71 21.7 40 4.4 32 32 S 26 43 29.53 1000 10 16 0.00 0.00
5:53 pm 17:53 Mostly Sunny 68 20 43 6.1 40 40 S 21 33 29.53 1000 10 16 0.00 0.00
6:53 pm 18:53 Partly Cloudy 65 18.3 41 5 42 42 S 26 43 29.55 1001 10 16 0.00 0.00
7:53 pm 19:53 Mostly Clear 63 17.2 43 6.1 48 48 S 17 28 29.57 1001 10 16 0.00 0.00
8:53 pm 20:53 Clear 59 15 44 6.7 58 58 S 20 31 29.59 1002 10 16 0.00 0.00
9:53 pm 21:53 Clear 58 14.4 44 6.7 60 60 S 15 24 29.63 1003 10 16 0.00 0.00
10:53 pm 22:53 Mostly Cloudy 57 13.9 34 1.1 42 42 SSW 14 22 29.66 1004 10 16 0.00 0.00
11:53 pm 23:53 Mostly Cloudy 55 12.8 32 0 42 42 S 10 17 29.66 1004 10 16 0.00 0.00

Powered by AerisWeather